Hourly Data Report for October 12, 2015

All times are specified in Local Standard Time (LST). Add 1 hour to adjust for Daylight Saving Time where and when it is observed.

ARVIAT A
NUNAVUT

61°05'38.000" N
94°04'18.000" W
10.40 m
2300427
71174
YEK

Download Data

Hourly Data (October 2015)
Hourly Data Report for October 12, 2015
Temp Definition
°C
Dew Point Temp Definition
°C
Rel Hum Definition
%
Wind Dir Definition
10's deg

Wind Spd Definition
km/h
Visibility Definition
km
Stn Press Definition
kPa
Hmdx Definition


Wind Chill Definition


Weather Definition


TIME
00:00 Legend Double Dagger 0.7 0.3 97 6 30 8.1 100.18     Fog
01:00 Legend Double Dagger 0.7 0.1 96 6 26 4.0 100.26     Snow
02:00 Legend Double Dagger 0.5 0.4 99 5 22 4.8 100.32     Snow
03:00 Legend Double Dagger 0.5 0.2 98 5 28 11.3 100.33     Snow
04:00 Legend Double Dagger 0.5 0.1 97 5 24 16.1 100.31     Rain,Snow
05:00 Legend Double Dagger 0.7 -0.3 93 5 24 16.1 100.34     LegendNANA
06:00 Legend Double Dagger 0.6 -0.7 91 5 18 16.1 100.41     LegendNANA
07:00 Legend Double Dagger 0.4 -1.1 90 6 17 16.1 100.47     LegendNANA
08:00 Legend Double Dagger 0.2 -1.4 89 6 11 16.1 100.51     LegendNANA
09:00 Legend Double Dagger -1.4 -2.0 96 33 9 16.1 100.54   -5 LegendNANA
10:00 Legend Double Dagger -1.4 -1.7 98 33 11 16.1 100.58   -5 LegendNANA
11:00 Legend Double Dagger -1.0 -1.6 96 33 9 16.1 100.59   -4 Snow
12:00 Legend Double Dagger -0.7 -1.5 95 33 5 16.1 100.59   -2 LegendNANA
13:00 Legend Double Dagger -0.5 -1.3 95 29 8 16.1 100.57   -3 LegendNANA
14:00 Legend Double Dagger -0.4 -1.0 96 28 13 16.1 100.57   -5 Snow
15:00 Legend Double Dagger -1.1 -2.0 94 33 35 16.1 100.56   -8 Snow
16:00 Legend Double Dagger -3.0 -4.1 92 34 32 16.1 100.64   -11 Snow
17:00 Legend Double Dagger -4.0 -5.1 92 34 28 16.1 100.71   -11 Snow
18:00 Legend Double Dagger -5.2 -6.5 91 34 30 16.1 100.76   -13 LegendNANA
19:00 Legend Double Dagger -6.0 -6.9 94 35 30 16.1 100.77   -14 LegendNANA
20:00 Legend Double Dagger -6.9 -7.9 93 34 35 16.1 100.78   -16 LegendNANA
21:00 Legend Double Dagger -6.7 -7.8 92 35 35 16.1 100.74   -16 LegendNANA
22:00 Legend Double Dagger -7.2 -8.6 90 33 26 16.1 100.75   -15 LegendNANA
23:00 Legend Double Dagger -7.3 -8.6 90 36 26 16.1 100.77   -15 LegendNANA

Notes on Data Quality.

Legend

  • E = Estimated
  • M = Missing
  • NA = Not Available
  • ‡ = Partner data that is not subject to review by the National Climate Archives
Date modified: